TimeCST,TemperatureF,Dew PointF,Humidity,Sea Level PressureIn,VisibilityMPH,Wind Direction,Wind SpeedMPH,Gust SpeedMPH,PrecipitationIn,Events,Conditions,WindDirDegrees,DateUTC
12:15 AM,37.4,35.6,93,29.89,4.0,ESE,12.7,-,N/A,,Overcast,120,2013-02-10 06:15:00
12:35 AM,37.4,35.6,93,29.88,2.5,ESE,12.7,-,N/A,,Overcast,120,2013-02-10 06:35:00
12:55 AM,37.4,37.4,100,29.88,3.0,SE,10.4,-,N/A,,Overcast,140,2013-02-10 06:55:00
1:15 AM,39.2,37.4,93,29.87,3.0,SE,10.4,-,N/A,,Mostly Cloudy,130,2013-02-10 07:15:00
1:35 AM,39.2,37.4,93,29.85,2.5,SE,10.4,-,N/A,,Mostly Cloudy,130,2013-02-10 07:35:00
1:55 AM,39.2,39.2,100,29.84,2.5,ESE,10.4,-,N/A,,Overcast,120,2013-02-10 07:55:00
2:15 AM,39.2,39.2,100,29.82,1.5,ESE,8.1,-,N/A,,Overcast,120,2013-02-10 08:15:00
2:35 AM,39.2,39.2,100,29.79,1.2,ESE,10.4,-,N/A,,Overcast,120,2013-02-10 08:35:00
2:55 AM,39.2,39.2,100,29.77,1.2,SE,10.4,-,N/A,,Overcast,130,2013-02-10 08:55:00
3:15 AM,39.2,39.2,100,29.75,1.2,ESE,10.4,-,N/A,,Overcast,120,2013-02-10 09:15:00
3:35 AM,39.2,39.2,100,29.74,1.2,ESE,8.1,-,N/A,,Overcast,120,2013-02-10 09:35:00
3:55 AM,39.2,39.2,100,29.77,1.2,NNE,3.5,-,N/A,,Overcast,30,2013-02-10 09:55:00
4:15 AM,39.2,39.2,100,29.77,0.8,East,5.8,-,N/A,,Overcast,90,2013-02-10 10:15:00
4:35 AM,39.2,39.2,100,29.75,0.8,ESE,9.2,-,N/A,Rain-Thunderstorm,Light Thunderstorms and Rain,110,2013-02-10 10:35:00
4:55 AM,39.2,39.2,100,29.78,0.8,North,5.8,-,0.36,Rain-Thunderstorm,Heavy Thunderstorms and Rain,350,2013-02-10 10:55:00
5:15 AM,39.2,39.2,100,29.79,1.0,ESE,4.6,-,0.15,Rain-Thunderstorm,Rain,110,2013-02-10 11:15:00
6:50 AM,41.0,41.0,100,29.72,0.8,SE,15.0,19.6,N/A,Rain-Thunderstorm,Light Thunderstorms and Rain,130,2013-02-10 12:50:00
7:45 AM,46.4,46.4,100,29.68,10.0,SE,16.1,-,N/A,,Overcast,140,2013-02-10 13:45:00
8:45 AM,48.2,48.2,100,29.70,2.0,SSE,10.4,-,N/A,Rain,Light Rain,150,2013-02-10 14:45:00
9:45 AM,50.0,50.0,100,29.70,10.0,SSE,6.9,-,N/A,,Overcast,160,2013-02-10 15:45:00
10:52 AM,57.2,50.0,77,29.69,10.0,SW,16.1,24.2,N/A,,Mostly Cloudy,220,2013-02-10 16:52:00
11:47 AM,59.0,41.0,51,29.69,10.0,SW,19.6,29.9,N/A,,Scattered Clouds,230,2013-02-10 17:47:00
12:45 PM,59.0,35.6,42,29.67,10.0,SW,13.8,24.2,N/A,,Scattered Clouds,230,2013-02-10 18:45:00
1:45 PM,60.8,28.4,29,29.66,10.0,WSW,15.0,24.2,N/A,,Scattered Clouds,250,2013-02-10 19:45:00
2:48 PM,60.8,26.6,27,29.69,10.0,West,17.3,27.6,N/A,,Scattered Clouds,260,2013-02-10 20:48:00
3:51 PM,59.0,24.8,27,29.72,10.0,WSW,19.6,31.1,N/A,,Partly Cloudy,250,2013-02-10 21:51:00
4:46 PM,57.2,24.8,29,29.75,10.0,West,17.3,26.5,N/A,,Partly Cloudy,260,2013-02-10 22:46:00
5:45 PM,55.4,24.8,31,29.78,10.0,WSW,9.2,18.4,N/A,,Partly Cloudy,250,2013-02-10 23:45:00
6:45 PM,53.6,26.6,35,29.81,10.0,SW,6.9,-,N/A,,Partly Cloudy,220,2013-02-11 00:45:00
7:55 PM,50.0,26.6,40,29.85,10.0,WSW,6.9,-,N/A,,Partly Cloudy,250,2013-02-11 01:55:00
8:15 PM,50.0,26.6,40,29.86,10.0,WSW,9.2,-,N/A,,Clear,250,2013-02-11 02:15:00
8:35 PM,50.0,26.6,40,29.88,10.0,West,10.4,16.1,N/A,,Clear,260,2013-02-11 02:35:00
8:45 PM,50.0,26.6,40,29.88,10.0,West,11.5,18.4,N/A,,Partly Cloudy,270,2013-02-11 02:45:00
8:55 PM,50.0,24.8,37,29.89,10.0,West,9.2,21.9,N/A,,Clear,260,2013-02-11 02:55:00
9:15 PM,50.0,24.8,37,29.91,10.0,WNW,15.0,24.2,N/A,,Clear,290,2013-02-11 03:15:00
9:35 PM,48.2,26.6,43,29.93,10.0,WNW,16.1,31.1,N/A,,Clear,290,2013-02-11 03:35:00
10:15 PM,44.6,24.8,46,29.98,10.0,WNW,12.7,29.9,N/A,,Clear,290,2013-02-11 04:15:00
10:35 PM,42.8,24.8,49,29.99,10.0,WNW,10.4,19.6,N/A,,Clear,290,2013-02-11 04:35:00
10:55 PM,42.8,24.8,49,29.99,10.0,West,9.2,21.9,N/A,,Clear,280,2013-02-11 04:55:00
11:15 PM,42.8,23.0,46,30.00,10.0,West,10.4,20.7,N/A,,Clear,280,2013-02-11 05:15:00
11:35 PM,41.0,23.0,49,30.01,10.0,WNW,10.4,21.9,N/A,,Clear,290,2013-02-11 05:35:00
11:55 PM,41.0,24.8,53,30.02,10.0,West,9.2,24.2,N/A,,Clear,280,2013-02-11 05:55:00